TimeCDT,TemperatureF,Dew PointF,Humidity,Sea Level PressureIn,VisibilityMPH,Wind Direction,Wind SpeedMPH,Gust SpeedMPH,PrecipitationIn,Events,Conditions,WindDirDegrees,DateUTC
12:15 AM,82.4,66.2,58,29.96,10.0,South,4.6,-,N/A,,Clear,170,2013-07-11 05:15:00
12:35 AM,82.4,68.0,62,29.96,10.0,South,4.6,-,N/A,,Clear,180,2013-07-11 05:35:00
12:55 AM,82.4,68.0,62,29.96,10.0,South,4.6,-,N/A,,Clear,180,2013-07-11 05:55:00
1:15 AM,82.4,68.0,62,29.97,10.0,South,5.8,-,N/A,,Clear,180,2013-07-11 06:15:00
1:35 AM,82.4,69.8,66,29.97,10.0,South,5.8,-,N/A,,Clear,190,2013-07-11 06:35:00
1:55 AM,82.4,69.8,66,29.98,10.0,Calm,Calm,-,N/A,,Clear,0,2013-07-11 06:55:00
2:15 AM,80.6,69.8,70,29.98,10.0,South,3.5,-,N/A,,Clear,190,2013-07-11 07:15:00
2:35 AM,80.6,69.8,70,29.98,10.0,SSW,4.6,-,N/A,,Clear,200,2013-07-11 07:35:00
2:55 AM,80.6,69.8,70,29.98,10.0,SSW,3.5,-,N/A,,Clear,200,2013-07-11 07:55:00
3:15 AM,80.6,69.8,70,29.98,10.0,South,3.5,-,N/A,,Clear,190,2013-07-11 08:15:00
3:35 AM,78.8,69.8,74,29.98,10.0,Calm,Calm,-,N/A,,Mostly Cloudy,0,2013-07-11 08:35:00
3:55 AM,78.8,69.8,74,29.98,10.0,Calm,Calm,-,N/A,,Mostly Cloudy,0,2013-07-11 08:55:00
4:15 AM,78.8,69.8,74,29.98,10.0,Calm,Calm,-,N/A,,Scattered Clouds,0,2013-07-11 09:15:00
4:35 AM,78.8,69.8,74,29.98,10.0,Calm,Calm,-,N/A,,Scattered Clouds,0,2013-07-11 09:35:00
4:55 AM,78.8,69.8,74,29.98,10.0,Calm,Calm,-,N/A,,Clear,0,2013-07-11 09:55:00
5:15 AM,77.0,69.8,78,29.97,10.0,Calm,Calm,-,N/A,,Clear,0,2013-07-11 10:15:00
5:35 AM,77.0,69.8,78,29.97,10.0,Calm,Calm,-,N/A,,Clear,0,2013-07-11 10:35:00
5:55 AM,77.0,69.8,78,29.97,10.0,Calm,Calm,-,N/A,,Clear,0,2013-07-11 10:55:00
6:15 AM,77.0,69.8,78,29.98,10.0,Calm,Calm,-,N/A,,Clear,0,2013-07-11 11:15:00
6:35 AM,77.0,69.8,78,29.97,10.0,SSW,3.5,-,N/A,,Clear,200,2013-07-11 11:35:00
6:55 AM,77.0,69.8,78,29.97,10.0,Calm,Calm,-,N/A,,Clear,0,2013-07-11 11:55:00
7:15 AM,77.0,69.8,78,29.98,10.0,South,3.5,-,N/A,,Clear,180,2013-07-11 12:15:00
7:35 AM,77.0,69.8,78,29.98,10.0,South,4.6,-,N/A,,Clear,180,2013-07-11 12:35:00
7:55 AM,78.8,69.8,74,29.99,10.0,SSW,3.5,-,N/A,,Clear,200,2013-07-11 12:55:00
8:15 AM,78.8,69.8,74,29.99,10.0,Calm,Calm,-,N/A,,Clear,0,2013-07-11 13:15:00
8:35 AM,80.6,69.8,70,29.99,10.0,SW,5.8,-,N/A,,Clear,220,2013-07-11 13:35:00
8:55 AM,80.6,69.8,70,29.99,10.0,SW,5.8,-,N/A,,Clear,220,2013-07-11 13:55:00
9:15 AM,82.4,69.8,66,29.99,10.0,WSW,3.5,-,N/A,,Clear,240,2013-07-11 14:15:00
9:35 AM,84.2,69.8,62,29.99,10.0,West,3.5,-,N/A,,Clear,260,2013-07-11 14:35:00
9:55 AM,86.0,69.8,58,29.99,10.0,SW,4.6,-,N/A,,Clear,230,2013-07-11 14:55:00
10:15 AM,86.0,69.8,58,29.98,10.0,WSW,3.5,-,N/A,,Scattered Clouds,250,2013-07-11 15:15:00
10:35 AM,86.0,69.8,58,29.98,10.0,SW,5.8,-,N/A,,Scattered Clouds,220,2013-07-11 15:35:00
10:55 AM,87.8,69.8,55,29.98,10.0,West,5.8,-,N/A,,Clear,270,2013-07-11 15:55:00
11:15 AM,89.6,69.8,52,29.98,10.0,WNW,3.5,-,N/A,,Clear,290,2013-07-11 16:15:00
11:35 AM,89.6,69.8,52,29.98,10.0,SW,6.9,-,N/A,,Scattered Clouds,220,2013-07-11 16:35:00
11:55 AM,89.6,68.0,49,29.98,10.0,SSW,3.5,-,N/A,,Scattered Clouds,210,2013-07-11 16:55:00
12:15 PM,91.4,69.8,49,29.97,10.0,WSW,3.5,-,N/A,,Clear,240,2013-07-11 17:15:00
12:35 PM,93.2,68.0,44,29.97,10.0,SW,4.6,-,N/A,,Scattered Clouds,220,2013-07-11 17:35:00
12:55 PM,93.2,68.0,44,29.97,10.0,SW,4.6,-,N/A,,Scattered Clouds,230,2013-07-11 17:55:00
1:15 PM,93.2,68.0,44,29.96,10.0,West,3.5,-,N/A,,Scattered Clouds,280,2013-07-11 18:15:00
1:35 PM,95.0,68.0,41,29.95,10.0,Calm,Calm,-,N/A,,Scattered Clouds,0,2013-07-11 18:35:00
1:55 PM,96.8,68.0,39,29.94,10.0,WSW,4.6,-,N/A,,Scattered Clouds,240,2013-07-11 18:55:00
2:15 PM,96.8,66.2,37,29.92,10.0,West,4.6,-,N/A,,Scattered Clouds,280,2013-07-11 19:15:00
2:35 PM,95.0,66.2,39,29.91,10.0,Calm,Calm,-,N/A,,Scattered Clouds,0,2013-07-11 19:35:00
2:55 PM,96.8,68.0,39,29.91,10.0,SW,3.5,-,N/A,,Scattered Clouds,230,2013-07-11 19:55:00
3:15 PM,95.0,68.0,41,29.92,10.0,Calm,Calm,-,N/A,Thunderstorm,Scattered Clouds,0,2013-07-11 20:15:00
3:35 PM,75.2,69.8,83,29.95,3.0,NE,16.1,35.7,0.10,Rain-Thunderstorm,Heavy Thunderstorms and Rain,40,2013-07-11 20:35:00
3:55 PM,75.2,71.6,89,29.96,10.0,NNE,12.7,26.5,0.18,Rain-Thunderstorm,Light Thunderstorms and Rain,20,2013-07-11 20:55:00
4:15 PM,77.0,69.8,78,29.96,2.5,NNW,6.9,21.9,0.25,Rain-Thunderstorm,Heavy Thunderstorms and Rain,330,2013-07-11 21:15:00
4:35 PM,73.4,69.8,88,29.94,2.0,Calm,Calm,-,0.46,Rain-Thunderstorm,Heavy Thunderstorms and Rain,0,2013-07-11 21:35:00
4:55 PM,75.2,71.6,89,29.94,10.0,Calm,Calm,-,0.50,Rain-Thunderstorm,Light Thunderstorms and Rain,0,2013-07-11 21:55:00
5:15 PM,75.2,71.6,89,29.92,10.0,East,3.5,-,0.02,Rain,Light Rain,90,2013-07-11 22:15:00
5:35 PM,77.0,73.4,89,29.91,10.0,SSE,4.6,-,0.03,Rain,Light Rain,160,2013-07-11 22:35:00
5:55 PM,77.0,73.4,89,29.93,10.0,Calm,Calm,-,0.04,Rain,Light Rain,0,2013-07-11 22:55:00
6:15 PM,77.0,71.6,83,29.93,10.0,SE,10.4,-,N/A,,Scattered Clouds,130,2013-07-11 23:15:00
6:35 PM,75.2,71.6,89,29.91,10.0,South,10.4,-,N/A,,Clear,170,2013-07-11 23:35:00
6:55 PM,75.2,71.6,89,29.93,10.0,ENE,3.5,-,N/A,,Clear,60,2013-07-11 23:55:00
7:15 PM,75.2,71.6,89,29.93,10.0,SE,4.6,-,N/A,,Clear,140,2013-07-12 00:15:00
7:35 PM,77.0,71.6,83,29.92,10.0,ESE,5.8,-,N/A,,Clear,110,2013-07-12 00:35:00
7:55 PM,77.0,71.6,83,29.93,10.0,Calm,Calm,-,N/A,,Clear,0,2013-07-12 00:55:00
8:15 PM,77.0,71.6,83,29.93,10.0,Calm,Calm,-,N/A,,Clear,0,2013-07-12 01:15:00
8:35 PM,75.2,71.6,89,29.94,10.0,Calm,Calm,-,N/A,,Scattered Clouds,0,2013-07-12 01:35:00
8:55 PM,75.2,73.4,94,29.93,10.0,Calm,Calm,-,N/A,,Clear,0,2013-07-12 01:55:00
9:15 PM,73.4,73.4,100,29.92,10.0,Calm,Calm,-,N/A,,Clear,0,2013-07-12 02:15:00
9:35 PM,75.2,73.4,94,29.92,10.0,Calm,Calm,-,N/A,,Clear,0,2013-07-12 02:35:00
9:55 PM,73.4,73.4,100,29.92,10.0,Calm,Calm,-,N/A,,Clear,0,2013-07-12 02:55:00
10:15 PM,73.4,71.6,94,29.93,10.0,Calm,Calm,-,N/A,,Clear,0,2013-07-12 03:15:00
10:35 PM,73.4,73.4,100,29.93,10.0,South,3.5,-,N/A,,Clear,170,2013-07-12 03:35:00
10:55 PM,73.4,71.6,94,29.94,10.0,Calm,Calm,-,N/A,,Clear,0,2013-07-12 03:55:00
11:15 PM,73.4,71.6,94,29.94,10.0,Calm,Calm,-,N/A,,Clear,0,2013-07-12 04:15:00
11:35 PM,73.4,71.6,94,29.95,10.0,Calm,Calm,-,N/A,,Clear,0,2013-07-12 04:35:00
11:55 PM,73.4,71.6,94,29.94,10.0,Calm,Calm,-,N/A,,Clear,0,2013-07-12 04:55:00